Terminal Aerodrome Forecast
Issued by NWS

Home | Current Version | Previous Version | Text Only | Print | Product List | Glossary On
Versions: 1 2 3 4 5 6 7 8 9 10 11 12 13 14 15 16 17 18 19 20 21 22 23 24 25 26 27 28 29 30 31 32 33 34 35 36 37 38 39 40 41 42 43 44 45 46 47 48 49 50
000
FTUS42 KMFL 130544
TAFTMB
TAF
KTMB 130544Z 1306/1406 12005KT P6SM VCTS FEW025CB BKN250
     FM131400 11009KT P6SM VCTS FEW030CB BKN250
     FM131600 12009KT P6SM SCT250
     FM140000 12007KT P6SM VCSH FEW025 SCT250=

USA.gov is the U.S. government's official web portal to all federal, state and local government web resources and services.